Total_Precipitation_Accumulation
1.54 1.32 1.11 1.10 1.10 1.30 1.98 2.35 1.74 0.78 0.66 1.67 1.28 0.47 0.07 0.02 0.03 0.10 0.25 0.28 0.43 0.68 0.49 0.55 0.63 0.41 0.40 0.13 0.03 0.04 0.11 0.84 0.68 0.26 0.12 0.18 0.27 0.23 0.32 0.70 0.51 0.52 1.27 1.82
2.07 1.71 1.47 1.28 1.25 1.36 2.23 2.95 1.80 1.71 1.02 0.96 0.57 0.21 0.05 0.02 0.01 0.03 0.16 0.23 0.55 0.68 0.81 0.99 1.13 0.58 0.19 0.05 0.03 0.14 0.24 0.75 0.39 0.45 0.61 0.31 0.23 0.27 0.40 0.54 0.82 1.23 1.51 1.62
1.91 1.98 2.05 2.16 2.16 2.06 2.58 3.07 2.56 3.35 2.85 0.93 0.21 0.19 0.10 0.03 0.01 0.01 0.08 0.30 0.59 0.65 0.82 0.86 0.97 0.51 0.10 0.02 0.01 0.03 0.26 0.31 0.39 0.72 0.90 0.74 0.43 0.35 0.39 0.63 0.99 0.97 1.12 1.17
1.55 1.68 2.03 2.05 2.09 2.46 4.04 4.03 1.56 1.16 1.58 1.08 0.43 0.29 0.28 0.16 0.14 0.11 0.21 0.53 0.40 0.48 0.67 0.52 0.51 0.48 0.16 0.07 0.02 0.04 0.11 0.40 0.73 0.57 0.68 0.57 1.01 1.02 1.04 0.80 0.69 0.83 0.93 0.53
1.35 1.38 1.57 1.93 2.15 2.61 4.94 4.21 0.92 0.36 0.23 0.30 0.59 0.51 0.31 0.14 0.21 0.39 0.35 0.12 0.06 0.10 0.12 0.34 0.32 0.37 0.30 0.25 0.11 0.10 0.10 0.29 0.72 1.37 0.87 0.38 0.85 1.03 0.87 0.58 0.68 0.72 0.46 0.49
1.31 1.23 1.29 1.59 2.16 3.70 5.98 3.41 0.65 0.62 0.58 0.35 0.69 0.69 0.31 0.22 0.21 0.17 0.07 0.03 0.04 0.04 0.02 0.03 0.13 0.09 0.06 0.12 0.16 0.16 0.17 0.22 0.26 0.56 0.44 0.21 0.56 0.82 0.48 0.28 0.24 0.25 0.24 0.33
1.25 1.35 1.30 1.36 1.72 3.33 3.90 2.13 0.60 1.07 1.04 0.48 0.23 0.13 0.13 0.16 0.09 0.15 0.07 0.06 0.05 0.04 0.02 0.09 0.23 0.13 0.05 0.17 0.14 0.21 0.24 0.23 0.28 0.37 0.25 0.65 0.89 0.38 0.23 0.21 0.30 0.16 0.16 0.23
1.17 1.34 1.24 1.16 1.28 1.81 2.85 1.98 0.86 0.79 0.70 0.30 0.23 0.19 0.19 0.20 0.16 0.13 0.11 0.07 0.08 0.13 0.13 0.22 0.30 0.24 0.19 0.14 0.27 0.26 0.24 0.35 0.54 0.42 0.35 0.44 0.25 0.07 0.07 0.17 0.20 0.15 0.23 0.49
0.98 1.17 1.21 1.12 1.01 1.34 2.10 2.02 1.32 1.28 1.05 0.44 0.09 0.11 0.13 0.20 0.26 0.33 0.21 0.16 0.20 0.19 0.34 0.40 0.31 0.27 0.19 0.18 0.16 0.29 0.44 0.38 0.53 0.47 0.45 0.42 0.19 0.02 0.00 0.03 0.18 0.08 0.17 0.64
0.85 0.92 1.04 1.08 1.01 1.31 1.65 1.78 1.37 2.36 1.85 0.42 0.20 0.20 0.17 0.12 0.19 0.41 0.29 0.28 0.39 0.42 0.41 0.37 0.15 0.14 0.12 0.27 0.24 0.17 0.37 0.63 0.68 0.47 0.49 0.19 0.02 0.04 0.03 0.26 0.38 0.10 0.07 0.22
0.76 0.68 0.81 1.02 1.24 1.44 1.87 1.64 1.01 1.93 1.83 0.61 0.35 0.30 0.26 0.13 0.23 0.48 0.36 0.75 0.58 0.65 0.43 0.25 0.14 0.14 0.15 0.23 0.21 0.20 0.20 0.45 0.49 0.53 0.53 0.31 0.05 0.16 0.32 0.33 0.15 0.09 0.07 0.05
0.70 0.59 0.64 0.84 1.27 1.72 2.34 2.39 1.17 1.42 1.86 1.16 0.55 0.31 0.27 0.14 0.17 0.44 0.55 0.41 0.47 0.36 0.48 0.29 0.23 0.23 0.18 0.14 0.45 0.24 0.37 0.15 0.20 0.22 0.26 0.31 0.24 0.27 0.27 0.14 0.18 0.16 0.10 0.15
0.66 0.69 0.75 0.85 1.09 1.62 3.11 2.62 1.37 3.20 2.95 1.41 0.62 0.41 0.21 0.21 0.12 0.21 0.51 0.42 0.48 0.61 0.56 0.62 0.48 0.33 0.15 0.16 0.23 0.34 0.58 0.47 0.40 0.53 0.64 0.39 0.48 0.36 0.13 0.11 0.21 0.22 0.16 0.11
0.75 0.85 0.93 0.88 1.09 1.63 2.99 2.77 1.65 3.02 2.37 1.79 0.81 0.33 0.34 0.29 0.20 0.12 0.17 0.26 0.31 0.45 0.69 0.57 0.49 0.31 0.13 0.12 0.24 0.31 0.30 0.57 0.74 0.94 0.81 0.63 0.72 0.73 0.57 0.40 0.18 0.15 0.17 0.14
0.80 0.94 0.93 1.16 1.42 2.14 2.83 2.25 1.64 1.84 1.92 1.73 1.03 0.35 0.33 0.34 0.35 0.21 0.20 0.27 0.32 0.49 0.83 0.79 0.42 0.27 0.22 0.21 0.47 0.40 0.18 0.44 0.83 1.32 1.04 0.91 0.90 0.50 0.36 0.31 0.27 0.15 0.07 0.04
0.79 0.89 1.20 1.54 2.10 3.12 3.96 5.29 2.96 1.42 1.81 2.11 1.45 0.77 0.33 0.38 0.47 0.39 0.25 0.28 0.44 0.62 0.70 0.68 0.52 0.34 0.72 0.72 0.68 0.36 0.17 0.22 0.34 0.60 0.92 0.88 0.73 0.47 0.26 0.17 0.09 0.03 0.01 0.01
0.97 1.21 1.44 1.93 2.66 2.43 2.09 2.42 1.51 1.06 1.91 2.61 1.62 1.25 0.47 0.42 0.63 0.69 0.55 0.54 0.67 0.67 0.75 0.50 0.33 0.38 0.77 1.08 0.82 0.46 0.30 0.31 0.39 0.40 0.47 0.37 0.23 0.15 0.07 0.02 0.01 0.02 0.01 0.01
1.30 1.65 1.93 2.57 2.89 2.51 1.76 0.82 0.77 0.94 1.97 1.56 1.31 1.38 1.20 0.77 0.81 1.05 0.85 1.02 0.93 0.97 0.78 0.47 0.41 0.50 0.70 0.81 0.28 0.07 0.11 0.15 0.19 0.22 0.19 0.20 0.14 0.05 0.03 0.02 0.03 0.04 0.07 0.13
1.80 2.15 3.22 4.45 4.03 3.42 1.68 1.15 1.09 1.22 1.75 1.18 0.64 1.09 1.65 1.34 1.00 1.03 1.23 1.03 1.27 0.85 0.59 0.38 0.68 0.72 0.89 0.48 0.08 0.03 0.02 0.02 0.02 0.03 0.05 0.09 0.09 0.07 0.04 0.04 0.06 0.13 0.29 0.25
2.63 3.63 4.84 5.46 2.90 1.57 1.98 3.26 2.80 2.40 1.57 0.78 0.49 0.65 1.54 1.77 1.52 0.94 1.34 1.34 1.03 1.03 0.51 0.56 0.64 0.74 0.51 0.16 0.05 0.02 0.01 0.00 0.01 0.01 0.02 0.04 0.10 0.13 0.15 0.22 0.29 0.31 0.27 0.17
3.79 4.31 4.04 3.03 2.16 1.82 2.65 2.95 2.19 1.51 0.76 0.38 0.44 0.51 1.04 1.46 1.51 1.12 1.09 1.36 1.07 0.78 0.80 0.90 0.91 0.53 0.33 0.19 0.11 0.04 0.01 0.01 0.01 0.02 0.03 0.07 0.15 0.31 0.32 0.22 0.16 0.13 0.12 0.14
2.84 2.85 3.00 3.57 3.16 2.61 2.52 2.04 1.25 0.56 0.42 0.27 0.31 0.37 0.62 1.40 1.70 1.58 1.45 1.49 1.31 0.84 0.80 1.04 0.85 0.53 0.18 0.11 0.10 0.07 0.05 0.05 0.06 0.12 0.19 0.23 0.26 0.23 0.18 0.15 0.15 0.17 0.18 0.21
2.42 2.49 2.97 3.33 2.90 2.42 1.70 1.04 0.58 0.38 0.49 0.22 0.33 0.39 0.62 0.95 1.52 2.02 1.31 1.51 1.69 1.05 1.04 0.88 0.59 0.40 0.28 0.31 0.30 0.33 0.32 0.29 0.27 0.21 0.17 0.15 0.13 0.10 0.11 0.15 0.21 0.24 0.32 0.45
2.26 2.45 2.49 2.22 1.86 1.33 0.96 0.59 0.38 0.35 0.30 0.27 0.60 0.36 0.54 0.76 1.16 1.73 1.50 1.52 1.27 1.48 0.89 0.65 0.65 0.74 0.71 0.47 0.36 0.33 0.41 0.43 0.43 0.44 0.41 0.41 0.41 0.48 0.55 0.62 0.73 0.68 0.88 1.13
1.48 1.44 1.39 1.13 1.22 1.01 0.84 0.72 0.59 0.54 0.49 0.59 0.83 0.86 0.88 0.99 1.31 1.17 0.96 0.92 0.81 0.66 0.74 0.72 0.72 0.77 0.60 0.49 0.51 0.54 0.60 0.62 0.61 0.62 0.62 0.72 0.75 0.68 0.84 0.96 0.93 0.78 0.79 0.80
0.80 0.85 1.07 1.01 0.90 0.88 0.81 0.82 0.83 0.79 0.83 0.84 0.94 0.94 0.79 0.87 0.76 0.59 0.55 0.54 0.62 0.75 0.62 0.50 0.49 0.53 0.58 0.64 0.67 0.78 0.78 0.68 0.63 0.64 0.60 0.60 0.62 0.57 0.63 0.68 0.65 0.67 0.55 0.56
0.57 0.88 0.98 0.93 0.82 0.85 0.88 0.82 0.80 0.80 0.71 0.69 0.58 0.51 0.52 0.47 0.39 0.52 0.55 0.70 0.70 0.59 0.65 0.71 0.67 0.70 0.76 0.74 0.78 0.82 0.78 0.70 0.64 0.60 0.58 0.61 0.61 0.45 0.31 0.40 0.57 0.45 0.42 0.37